Simultaneous Nadir Overpasses (SNOs) Predictions

Prediction of SNOs between AURA and NPP Satellite Orbit:

Table of predicted SNOs for the next 14.0 days since TLE Epoch: 5/18/2018
Index Date (AURA) Time (AURA) Lat,Lon (AURA) SZA (AURA ) Date (NPP) Time (NPP) Lat,Lon (NPP) SZA (NPP ) Distance(km) Time Diff (sec)
1 05/19/2018 19:58:26 -79.53, -42.57 107.37 05/19/2018 19:58:21 -79.53, -42.50 107.38 1.56 5
2 05/19/2018 20:47:47 79.72, 126.43 72.35 05/19/2018 20:49:00 79.71, 126.34 72.31 1.91 73
3 05/22/2018 11:25:34 79.27, -96.09 72.50 05/22/2018 11:24:39 79.26, -96.22 72.57 2.81 55
4 05/22/2018 12:14:53 -79.58, 73.65 107.96 05/22/2018 12:15:15 -79.58, 73.63 107.98 0.47 22
5 05/25/2018 03:41:56 79.46, 21.09 71.73 05/25/2018 03:41:27 79.47, 21.20 71.73 2.38 29
6 05/25/2018 04:31:19 -79.62,-170.16 108.51 05/25/2018 04:32:08 -79.61,-170.26 108.53 2.15 49
7 05/27/2018 19:58:22 79.54, 137.49 71.19 05/27/2018 19:58:20 79.54, 137.56 71.17 1.49 2
8 05/27/2018 20:46:47 -81.37, -34.72 112.30 05/27/2018 20:48:01 -81.07, -34.15 112.45 34.71 74
9 05/30/2018 11:25:28 -79.39, 84.74 108.99 05/30/2018 11:24:35 -79.40, 84.86 108.98 2.54 53




NCC Satellite Simultaneous Nadir Overpasses (SNOs) Prediction Service
